Wetbulb
46.48 46.59 46.62 46.47 46.79 47.42 47.34 46.92 46.68 46.56 46.60 47.13 47.38 47.40 47.63 47.99 49.27 48.54 45.47 49.26 49.12 45.31 45.54 48.06 49.01 45.15 46.01 46.85 43.37 47.03 49.62 49.12 46.96 42.21 42.13 41.98 40.61 42.99 43.52 45.76 43.78 40.73 38.36 37.08 38.34 34.47 32.17 50.02 48.24 40.83 45.42 47.45 47.55 47.16
46.19 46.64 46.98 46.66 46.69 47.38 47.50 47.51 46.66 46.37 46.60 46.67 47.27 47.25 47.40 47.57 48.54 49.27 43.65 48.59 50.12 45.98 45.08 49.03 48.73 49.98 49.42 49.27 46.45 47.86 48.32 50.53 50.84 44.92 44.52 44.47 42.04 42.86 42.57 36.68 48.32 39.33 42.36 39.11 39.90 39.55 49.20 51.09 50.20 51.07 50.00 47.15 47.76 46.57
46.68 46.43 46.68 46.91 46.59 46.75 46.89 46.60 46.58 46.72 46.66 46.36 46.52 47.48 47.36 47.26 48.06 48.76 45.81 46.40 46.67 43.49 43.48 44.36 44.59 49.47 51.72 52.39 53.13 46.06 51.51 52.41 51.83 55.30 50.49 46.80 42.32 44.85 41.30 40.46 43.07 46.62 48.81 43.97 43.16 48.38 49.46 50.97 51.43 50.58 50.10 49.56 49.69 48.55
46.80 46.53 46.28 46.45 46.78 46.94 46.49 46.48 46.49 46.24 46.53 46.09 46.21 46.76 47.24 47.22 47.65 48.71 45.38 47.03 45.86 43.70 38.58 41.80 52.01 49.23 53.66 52.95 53.08 52.55 51.09 52.26 52.84 52.88 49.00 45.78 42.80 47.22 42.21 44.18 43.55 46.45 47.14 46.64 45.99 48.29 51.06 51.10 50.98 50.64 50.86 50.81 49.80 48.83
46.98 46.71 46.38 46.16 46.41 46.39 46.28 46.04 46.19 46.22 46.14 46.19 46.35 46.64 46.99 47.07 47.16 47.41 46.88 47.38 47.86 43.48 38.77 39.57 44.73 48.16 51.25 53.06 52.77 51.78 51.76 50.59 48.46 48.39 45.84 43.35 45.75 45.98 45.43 44.84 41.64 47.10 46.60 43.87 41.50 48.16 47.53 49.21 51.17 51.87 49.80 49.05 48.46 47.05
47.25 46.90 46.61 46.06 46.36 46.32 46.16 46.04 46.21 46.49 46.35 46.55 46.59 46.78 46.95 46.87 46.91 44.54 41.62 48.21 48.75 48.75 41.71 36.26 45.80 47.57 50.63 53.14 51.59 50.12 51.18 50.56 48.99 48.31 46.79 47.61 50.13 46.05 40.89 39.81 47.31 49.08 49.50 50.86 48.10 51.23 51.72 52.75 51.83 51.84 50.33 49.56 49.11 47.53
47.13 47.00 46.96 46.19 45.76 45.95 45.81 45.88 45.83 46.29 46.52 46.59 46.60 46.60 46.61 46.89 44.78 41.33 40.76 44.46 47.23 46.89 42.14 38.32 38.87 45.40 49.81 51.09 50.14 49.40 50.22 48.34 47.94 46.74 45.65 45.45 45.90 46.93 42.81 38.53 47.51 49.64 50.73 50.79 53.09 52.02 50.24 51.02 49.13 51.25 51.27 50.57 50.53 48.93
46.64 46.88 46.79 46.72 45.79 45.63 45.71 45.88 45.97 46.22 46.25 46.19 46.38 46.33 46.32 47.13 45.65 40.93 44.21 47.25 46.45 44.85 43.66 37.61 38.03 41.84 49.94 46.23 44.93 49.66 46.65 47.04 46.78 46.15 46.87 44.80 45.90 46.45 40.63 46.46 48.74 50.29 51.44 51.53 52.73 52.77 51.41 52.18 51.35 50.50 49.54 48.95 47.29 45.87
46.22 46.37 46.35 46.58 46.12 45.70 45.63 45.94 46.04 46.28 45.87 45.97 46.06 46.23 44.64 42.51 38.75 41.06 50.51 49.92 48.90 44.69 38.01 38.63 35.84 34.98 49.87 46.12 46.87 47.27 47.19 42.17 47.36 43.64 44.44 45.39 43.24 40.52 46.02 47.13 48.54 49.38 49.30 49.96 52.45 51.44 51.05 50.23 50.22 49.10 48.39 47.69 45.88 45.09
45.76 45.74 46.00 46.05 46.39 46.16 45.75 45.98 46.01 46.00 45.87 45.58 43.86 40.08 36.53 41.64 51.07 50.50 46.08 42.25 42.00 42.36 40.26 36.06 40.10 37.61 44.63 45.15 44.47 44.13 46.53 43.51 40.17 43.43 46.70 43.39 42.13 46.87 49.52 50.85 50.50 50.60 52.18 51.77 49.26 47.16 49.05 48.79 49.37 48.69 47.76 47.48 47.21 45.74
45.59 45.80 45.79 46.03 46.27 46.33 46.03 46.08 46.23 45.83 44.58 42.07 38.95 37.33 46.18 49.85 46.18 42.94 38.15 36.83 36.96 34.55 38.09 37.66 38.23 36.69 45.35 41.58 41.87 45.91 42.57 43.54 37.49 41.31 41.33 40.01 38.68 45.23 50.69 51.27 52.06 52.08 52.40 51.97 51.54 50.85 50.86 49.84 49.44 48.62 48.59 48.87 48.74 46.13
45.76 45.76 45.78 45.93 46.31 46.33 46.10 46.09 46.17 44.11 43.64 43.48 41.65 44.20 45.56 41.37 39.40 35.56 34.62 37.48 34.86 31.87 39.03 37.91 38.88 40.38 42.70 47.55 42.76 43.39 39.56 42.80 37.37 44.70 41.11 37.53 43.09 47.04 50.37 50.97 51.35 52.58 52.41 51.97 52.47 51.46 51.26 51.16 50.65 49.95 48.63 47.76 46.87 46.04
45.54 45.52 45.72 45.84 46.28 45.83 45.94 46.39 46.17 45.72 45.71 44.86 40.76 37.96 37.40 34.56 32.03 30.45 29.07 33.07 33.63 38.06 40.92 42.26 40.52 41.63 44.31 46.08 42.61 42.00 36.77 37.34 43.92 40.72 38.74 41.41 45.76 49.02 49.55 50.99 51.32 52.71 52.48 52.09 52.06 52.00 51.93 51.54 52.67 51.12 48.40 48.55 47.45 45.94
44.62 44.74 45.34 45.93 45.55 45.73 46.24 46.28 45.87 44.40 42.65 36.63 34.30 27.45 30.82 30.68 32.88 34.46 35.20 37.01 40.86 41.52 41.30 42.72 41.36 40.88 43.61 41.21 41.14 37.15 40.59 41.04 35.96 33.92 36.48 44.12 46.99 48.65 50.80 51.59 51.85 51.15 51.50 51.87 51.52 52.36 51.93 50.45 49.59 49.83 48.99 47.95 46.68 45.83
43.95 44.66 45.22 45.35 45.67 45.69 46.02 45.90 45.57 44.16 40.76 34.77 34.96 28.05 31.04 36.60 38.70 39.14 40.16 39.98 43.80 44.72 44.52 43.04 43.77 43.53 40.85 39.00 39.78 38.82 36.79 35.16 36.50 37.14 41.63 45.38 47.97 51.12 51.00 51.44 51.35 51.39 51.31 50.96 51.03 50.88 49.68 48.94 48.04 47.79 48.15 47.49 46.88 46.72
43.84 44.04 43.76 45.80 46.12 45.93 46.09 45.38 43.59 44.13 40.13 36.61 35.85 32.81 36.06 35.73 36.35 37.04 37.64 39.39 42.53 44.19 45.01 44.57 40.77 38.53 37.04 38.57 36.03 34.95 35.18 34.50 38.36 44.11 47.00 47.61 50.07 51.32 51.26 51.74 51.97 52.29 51.37 50.44 50.24 49.49 48.66 48.02 47.19 47.41 47.30 46.96 46.47 46.18
44.40 42.75 46.01 46.01 46.06 45.90 45.62 43.88 42.15 37.59 35.78 34.30 33.52 38.36 36.97 36.90 36.92 38.74 39.30 41.19 46.08 42.74 37.07 40.58 36.55 35.83 40.56 36.97 35.80 39.41 36.48 40.45 45.60 46.20 47.98 47.72 45.67 49.01 52.03 52.17 52.40 52.35 51.34 50.56 49.68 48.67 48.20 48.92 48.60 47.09 45.19 45.39 45.57 46.87
42.40 44.90 45.82 45.92 45.15 44.04 43.46 42.48 38.95 36.63 32.37 35.03 33.40 35.96 37.88 40.03 39.28 40.69 43.32 43.84 43.73 42.61 42.06 39.25 42.70 37.01 35.66 35.06 36.73 41.74 44.27 46.15 45.82 45.50 46.01 48.06 48.15 48.43 52.20 51.98 52.57 52.07 51.02 50.26 49.32 48.77 48.57 48.21 46.54 45.80 45.38 45.47 46.96 46.83
44.03 45.34 45.73 45.43 44.38 41.73 37.85 38.51 40.21 32.72 34.37 36.89 37.93 38.57 38.61 39.39 42.48 43.30 44.45 45.32 46.27 46.78 44.42 42.41 38.52 36.31 37.42 42.66 42.70 43.98 45.20 45.69 45.66 46.10 48.03 47.48 47.99 49.01 48.61 52.78 52.43 51.25 50.44 49.58 48.52 47.89 48.30 48.46 47.33 46.45 45.87 45.85 43.97 45.70
45.64 45.36 44.98 44.83 43.67 39.88 36.15 37.62 42.97 36.11 32.84 36.70 38.93 37.92 40.33 40.49 40.28 40.96 42.24 43.78 44.66 43.72 40.41 39.14 39.40 41.94 42.53 42.96 44.93 46.91 46.83 47.23 47.47 46.34 46.87 48.40 49.04 48.03 50.58 51.42 50.73 50.43 49.93 49.55 49.01 46.90 48.15 48.13 48.75 47.70 46.89 45.97 44.82 45.41
43.28 43.77 43.40 43.78 42.64 41.06 37.63 36.79 36.65 37.46 38.46 37.51 39.27 39.22 37.73 39.14 38.01 39.29 41.82 45.18 42.69 40.58 38.99 41.91 43.03 45.50 47.96 47.49 48.58 48.74 48.69 47.73 45.33 46.06 46.93 48.30 51.15 51.84 51.40 50.97 50.47 50.00 48.78 48.29 47.29 45.33 46.69 46.54 47.14 47.38 46.33 46.38 45.91 47.30
42.64 42.68 43.12 42.85 38.83 38.76 37.47 39.22 37.20 40.11 38.04 38.30 38.81 40.08 36.91 36.58 38.07 40.21 44.51 40.78 39.47 42.32 44.25 45.47 46.48 46.80 47.21 47.09 46.26 47.30 47.33 48.97 48.12 47.36 44.36 46.60 48.81 49.17 49.42 50.43 50.08 48.83 48.70 49.02 47.62 46.47 46.88 46.56 46.45 46.45 45.86 46.65 46.42 46.56
43.10 43.01 41.10 40.11 35.75 34.01 32.19 41.33 35.85 38.06 34.50 36.75 39.29 36.84 38.20 39.56 41.47 44.50 39.71 41.81 43.27 45.54 47.61 47.96 48.30 48.41 46.65 47.58 47.36 47.20 48.46 47.56 47.96 49.89 50.50 50.68 50.62 50.74 50.18 50.08 49.85 47.55 46.23 46.36 47.02 46.49 45.28 42.38 43.65 45.00 46.34 45.31 45.63 45.65
42.99 39.59 36.66 34.87 34.60 31.57 36.77 35.32 37.46 35.90 37.38 36.94 36.11 34.27 37.04 40.77 43.94 40.51 37.30 39.61 43.39 47.34 47.13 47.82 47.69 45.81 45.28 46.02 44.83 45.51 47.50 48.51 48.78 49.51 50.55 50.41 49.20 49.19 50.34 49.47 49.29 48.32 47.86 47.47 46.58 45.62 45.21 45.49 42.20 45.18 45.41 45.31 44.71 44.86
34.83 33.10 34.37 30.92 36.61 34.57 33.57 33.90 34.91 35.42 33.29 36.15 34.90 35.72 38.18 41.95 37.70 37.11 36.94 41.15 43.54 44.53 46.04 47.01 46.67 45.71 43.52 44.02 44.90 46.58 50.39 50.86 49.81 48.13 50.56 50.20 50.10 49.71 48.81 49.22 48.76 48.57 49.10 47.22 46.27 45.97 44.97 45.05 45.64 44.53 44.71 44.47 43.94 44.30
29.96 35.24 32.12 34.69 35.33 34.24 34.47 32.37 33.78 34.38 35.59 34.58 36.04 40.42 41.01 39.17 35.31 34.74 40.00 41.75 41.37 44.88 45.03 44.72 44.10 43.85 43.79 45.36 44.41 46.14 49.22 51.97 50.80 49.12 50.33 50.87 49.85 48.24 47.46 46.22 45.95 46.36 49.46 48.85 47.27 45.84 44.93 45.11 44.75 44.25 44.40 42.70 38.55 44.90
29.85 32.65 37.47 41.32 38.96 38.22 36.28 37.70 38.76 36.88 34.68 34.33 37.22 37.40 37.39 32.74 33.42 38.75 43.24 46.65 45.81 46.05 46.73 46.52 45.94 44.39 43.92 44.59 46.49 49.73 52.36 51.85 50.95 50.58 51.38 51.52 51.31 50.78 49.79 47.50 46.37 47.56 49.63 49.52 48.29 47.65 45.91 45.40 45.33 45.07 45.36 46.27 45.92 45.68
35.81 36.99 33.00 36.57 37.00 38.76 34.63 35.94 35.67 35.02 36.84 39.80 39.61 34.91 33.64 34.96 36.35 43.59 44.95 47.16 49.22 48.49 47.57 47.75 47.51 47.25 47.06 47.30 49.01 49.10 50.39 52.29 52.04 52.39 51.12 51.30 51.56 51.59 50.95 50.02 48.92 41.59 49.82 50.37 49.40 48.36 47.14 46.04 45.97 45.92 45.83 45.50 46.04 47.04
36.00 38.83 37.18 35.33 36.54 36.96 37.42 36.62 37.26 39.35 39.77 40.58 38.59 37.30 39.08 43.61 46.43 46.51 48.57 50.24 51.07 49.01 46.79 46.65 46.65 47.81 48.10 49.12 49.58 50.96 51.86 50.28 48.76 46.89 46.20 44.52 45.93 46.74 48.88 49.51 49.54 49.10 47.53 44.53 35.97 43.59 47.53 46.98 46.45 46.04 46.46 46.61 47.09 47.73
36.48 40.58 37.03 36.59 35.38 34.77 38.91 42.43 40.57 43.83 44.93 44.96 44.49 43.70 43.84 45.04 46.70 49.58 48.36 48.43 47.49 47.45 46.23 46.90 46.35 45.60 44.90 47.31 49.03 50.74 51.61 51.47 50.81 49.24 46.96 45.75 46.39 48.60 49.20 49.44 49.01 49.33 48.89 47.75 46.42 42.04 36.71 43.74 41.99 45.81 45.66 46.23 46.64 46.71
39.65 39.22 37.13 37.39 36.55 39.68 41.84 44.90 45.10 45.15 44.47 43.06 45.07 43.05 42.48 44.58 47.27 48.60 49.19 49.42 48.42 47.91 47.12 45.81 45.75 46.36 46.64 47.43 49.24 48.61 48.77 51.45 52.26 52.10 51.26 50.03 49.74 49.57 50.18 49.69 49.98 49.87 49.32 48.77 47.47 47.02 46.07 45.40 45.05 44.95 45.09 45.26 45.08 45.06
38.38 36.72 36.02 34.41 36.57 41.27 43.37 42.43 41.32 40.43 40.70 41.18 41.16 44.07 44.01 43.10 41.60 46.13 48.46 48.90 47.18 46.57 40.79 45.87 45.92 46.00 47.97 48.97 49.32 50.07 40.77 51.70 50.55 50.88 51.07 50.51 50.74 51.39 50.82 50.73 50.63 50.23 48.85 47.54 47.25 46.75 45.75 44.88 45.32 45.56 45.61 45.79 45.93 45.50
38.74 39.27 38.63 37.28 37.33 37.00 39.94 40.31 39.38 39.11 40.54 40.28 41.90 43.07 42.89 42.30 39.43 45.95 50.11 50.16 49.80 47.79 47.48 48.25 47.83 48.01 49.30 49.25 48.99 50.39 46.77 52.09 42.21 33.39 34.71 37.24 38.15 46.03 50.75 51.33 51.18 49.58 48.18 47.01 46.48 46.23 45.48 45.22 45.25 45.71 45.95 45.35 45.35 44.25
MSLP
1027.95 1027.68 1027.45 1027.24 1027.01 1026.78 1026.47 1026.18 1025.99 1025.80 1025.54 1025.22 1024.83 1024.48 1024.17 1023.81 1023.37 1023.00 1021.88 1020.93 1020.62 1019.32 1016.95 1016.21 1015.66 1015.36 1014.14 1013.31 1013.16 1012.08 1011.00 1010.12 1010.53 1010.93 1010.77 1010.58 1010.20 1009.98 1010.04 1010.61 1011.22 1013.03 1014.21 1015.05 1015.53 1015.61 1014.52 1012.83 1013.04 1013.72 1014.85 1015.22 1015.80 1016.79
1027.42 1027.12 1026.87 1026.68 1026.48 1026.27 1026.03 1025.80 1025.60 1025.41 1025.22 1024.94 1024.59 1024.30 1024.03 1023.76 1023.39 1023.02 1021.99 1020.83 1020.39 1019.88 1017.21 1016.23 1015.63 1014.97 1014.79 1014.27 1014.04 1012.97 1012.17 1011.36 1011.09 1011.17 1010.93 1010.53 1010.53 1010.46 1010.95 1010.99 1011.23 1012.96 1013.04 1013.37 1013.94 1014.39 1013.71 1013.32 1013.65 1014.10 1014.62 1015.43 1016.47 1017.27
1026.83 1026.58 1026.36 1026.16 1025.97 1025.79 1025.59 1025.40 1025.19 1024.98 1024.80 1024.62 1024.37 1024.05 1023.81 1023.60 1023.32 1023.09 1022.32 1021.46 1020.79 1019.56 1016.91 1015.51 1014.04 1012.53 1012.72 1012.94 1013.11 1013.54 1012.44 1012.49 1012.13 1011.99 1011.24 1010.45 1010.59 1010.57 1011.11 1010.91 1011.01 1011.52 1012.02 1012.44 1013.07 1013.61 1013.55 1013.79 1014.05 1014.29 1014.79 1015.84 1016.68 1017.45
1026.23 1025.99 1025.76 1025.54 1025.36 1025.19 1025.04 1024.89 1024.75 1024.58 1024.42 1024.28 1024.10 1023.88 1023.58 1023.32 1023.06 1022.81 1022.36 1021.36 1020.98 1020.20 1018.16 1014.15 1012.65 1012.65 1011.70 1011.61 1011.89 1012.24 1012.44 1012.69 1012.94 1012.45 1011.53 1010.81 1010.58 1010.15 1010.75 1010.71 1010.83 1011.18 1011.48 1011.95 1012.43 1012.74 1013.28 1013.67 1013.95 1014.50 1015.34 1016.03 1016.99 1017.81
1025.50 1025.27 1025.06 1024.87 1024.72 1024.61 1024.48 1024.37 1024.26 1024.16 1024.04 1023.91 1023.77 1023.57 1023.30 1023.06 1022.85 1022.47 1021.58 1020.78 1020.43 1020.77 1018.93 1016.24 1014.52 1011.66 1010.83 1010.37 1010.75 1011.61 1012.16 1012.68 1013.18 1012.63 1011.48 1011.23 1010.17 1010.23 1010.25 1010.43 1010.75 1010.68 1010.77 1011.40 1012.15 1011.94 1012.30 1013.16 1013.75 1014.45 1015.41 1016.31 1017.22 1018.13
1024.63 1024.43 1024.30 1024.21 1024.07 1023.95 1023.89 1023.83 1023.73 1023.61 1023.50 1023.41 1023.31 1023.16 1022.98 1022.84 1022.70 1022.41 1020.72 1019.97 1020.27 1019.86 1019.83 1017.36 1013.49 1011.34 1010.41 1010.06 1010.44 1011.12 1011.75 1012.37 1012.68 1012.46 1011.48 1010.51 1009.83 1010.18 1010.59 1010.62 1010.16 1009.83 1009.70 1010.03 1011.13 1011.21 1011.75 1012.48 1013.47 1014.31 1015.45 1016.40 1017.32 1018.29
1023.68 1023.51 1023.42 1023.39 1023.36 1023.30 1023.27 1023.23 1023.17 1023.03 1022.91 1022.83 1022.79 1022.70 1022.61 1022.53 1022.56 1022.02 1021.10 1020.72 1020.48 1020.69 1019.85 1017.49 1013.82 1010.94 1010.22 1010.25 1010.49 1011.10 1011.42 1011.86 1012.24 1012.09 1011.46 1010.87 1010.37 1010.19 1010.23 1010.54 1010.17 1010.04 1010.01 1010.07 1010.47 1011.21 1012.53 1013.00 1014.01 1014.68 1015.46 1016.45 1017.50 1018.61
1022.69 1022.56 1022.47 1022.50 1022.57 1022.62 1022.64 1022.60 1022.55 1022.45 1022.36 1022.31 1022.29 1022.23 1022.12 1022.01 1021.82 1021.23 1019.66 1019.52 1020.20 1020.49 1019.81 1017.53 1013.95 1011.33 1009.64 1010.00 1010.37 1010.60 1011.17 1011.54 1011.51 1011.31 1010.74 1010.76 1010.32 1010.20 1010.06 1009.90 1009.74 1009.80 1010.14 1010.40 1010.92 1011.40 1012.26 1013.23 1014.14 1015.21 1015.98 1016.72 1018.07 1019.39
1021.53 1021.47 1021.50 1021.56 1021.71 1021.85 1021.95 1022.00 1022.00 1021.94 1021.94 1021.94 1021.87 1021.73 1021.57 1021.25 1020.15 1018.73 1018.56 1018.66 1019.49 1020.33 1019.35 1017.25 1014.59 1012.09 1010.16 1010.02 1010.04 1010.29 1010.49 1010.95 1010.59 1010.53 1010.48 1010.65 1010.20 1009.45 1008.98 1009.39 1009.41 1009.42 1009.88 1010.40 1010.99 1011.78 1012.58 1013.54 1014.56 1015.54 1016.32 1017.23 1018.25 1019.61
1020.23 1020.26 1020.41 1020.59 1020.80 1021.06 1021.28 1021.41 1021.48 1021.52 1021.63 1021.69 1021.74 1021.09 1019.91 1018.06 1018.06 1018.06 1018.69 1019.27 1019.71 1019.75 1019.39 1017.53 1015.65 1013.20 1011.89 1011.36 1010.96 1011.30 1010.58 1010.38 1009.79 1009.46 1009.62 1009.23 1008.86 1008.73 1008.22 1008.33 1008.46 1008.59 1008.82 1009.65 1010.87 1011.82 1012.66 1013.60 1014.49 1015.44 1016.35 1017.15 1018.08 1019.33
1018.82 1019.02 1019.34 1019.64 1019.87 1020.24 1020.56 1020.79 1020.96 1021.20 1021.50 1021.35 1020.78 1019.72 1018.74 1018.14 1018.06 1018.08 1017.95 1018.16 1018.32 1018.18 1017.38 1016.07 1015.32 1014.17 1012.70 1012.31 1012.07 1012.48 1012.37 1010.81 1009.30 1008.45 1008.47 1008.18 1007.78 1007.84 1007.40 1007.44 1007.59 1007.90 1008.48 1009.30 1010.02 1010.94 1011.99 1012.94 1014.10 1015.12 1016.06 1016.79 1017.64 1018.96
1017.61 1017.96 1018.37 1018.80 1019.09 1019.48 1019.88 1020.19 1020.44 1020.90 1020.63 1020.62 1020.69 1019.75 1019.09 1018.58 1017.79 1017.59 1016.83 1016.59 1016.53 1015.75 1014.67 1013.83 1013.01 1012.77 1012.69 1012.56 1012.76 1013.48 1013.08 1011.14 1009.49 1008.26 1007.75 1007.01 1006.73 1006.73 1006.81 1006.80 1007.06 1007.55 1008.26 1009.09 1009.72 1010.79 1011.71 1012.58 1013.59 1014.61 1015.58 1016.47 1017.75 1018.91
1016.88 1017.24 1017.74 1018.16 1018.55 1019.01 1019.35 1019.61 1020.00 1020.25 1020.39 1020.36 1020.22 1019.27 1018.44 1018.39 1017.13 1016.15 1014.95 1014.37 1013.83 1013.16 1011.89 1011.40 1011.16 1011.44 1012.16 1012.57 1012.94 1013.07 1013.09 1011.94 1010.73 1008.65 1006.79 1006.27 1006.32 1005.86 1005.89 1006.01 1006.46 1007.01 1007.70 1008.66 1009.68 1010.57 1011.45 1012.26 1013.21 1014.22 1015.41 1016.54 1017.66 1018.94
1016.75 1017.12 1017.47 1017.86 1018.31 1018.68 1018.96 1019.33 1019.85 1020.37 1020.57 1020.34 1019.53 1018.56 1017.61 1016.75 1015.21 1013.85 1013.19 1012.29 1011.69 1011.03 1010.53 1010.33 1010.12 1010.12 1010.75 1012.16 1012.48 1012.73 1012.78 1012.63 1011.81 1010.02 1008.08 1006.19 1005.61 1005.18 1005.15 1005.38 1006.05 1006.91 1007.60 1008.57 1009.60 1010.46 1011.35 1012.29 1013.42 1014.47 1015.53 1016.71 1017.90 1019.05
1017.19 1017.34 1017.58 1017.95 1018.27 1018.60 1018.93 1019.37 1019.82 1020.08 1019.99 1019.61 1018.89 1017.38 1015.61 1014.45 1013.63 1013.68 1013.52 1012.94 1011.05 1010.49 1010.28 1009.96 1009.90 1010.40 1010.55 1011.51 1012.05 1012.19 1012.11 1011.83 1011.21 1009.26 1008.44 1006.98 1005.76 1004.92 1004.82 1005.02 1005.84 1006.83 1007.76 1008.79 1009.57 1010.60 1011.74 1012.76 1013.86 1015.05 1016.09 1017.05 1018.11 1019.10
1017.63 1017.78 1017.83 1017.94 1018.36 1018.73 1019.11 1019.52 1019.88 1019.92 1019.28 1018.60 1017.57 1016.29 1014.94 1014.22 1013.79 1014.08 1014.15 1013.22 1012.91 1011.94 1011.21 1010.41 1010.49 1011.02 1011.29 1011.11 1011.31 1011.06 1010.70 1009.92 1009.30 1009.29 1008.86 1007.29 1006.85 1004.80 1005.01 1005.49 1006.23 1007.01 1008.03 1009.08 1010.23 1011.23 1012.31 1013.37 1014.41 1015.67 1016.69 1017.52 1018.47 1019.16
1017.91 1017.80 1017.72 1018.22 1018.64 1018.96 1019.26 1019.51 1019.64 1019.33 1018.73 1017.44 1015.95 1014.84 1014.60 1014.08 1014.04 1014.49 1014.74 1013.78 1012.57 1012.44 1012.17 1011.18 1010.43 1010.66 1010.79 1011.02 1010.31 1009.63 1009.15 1008.50 1009.27 1009.87 1009.03 1008.69 1007.56 1006.50 1005.56 1006.15 1006.78 1007.67 1008.66 1009.87 1010.98 1011.96 1012.95 1013.88 1014.99 1016.18 1017.32 1018.11 1018.64 1019.18
1018.33 1018.04 1018.20 1018.58 1018.88 1019.19 1019.40 1019.36 1019.03 1018.23 1017.29 1016.10 1015.14 1014.22 1013.96 1013.74 1014.01 1013.76 1013.39 1013.16 1012.57 1011.85 1011.55 1011.19 1011.05 1010.90 1010.80 1010.47 1009.83 1009.86 1009.91 1009.74 1009.41 1009.43 1009.36 1008.94 1008.15 1007.86 1006.86 1006.53 1007.28 1008.44 1009.53 1010.55 1011.56 1012.58 1013.44 1014.47 1015.61 1016.59 1017.41 1018.13 1018.67 1019.17
1018.62 1018.36 1018.70 1018.94 1019.00 1019.10 1019.09 1018.88 1018.60 1017.57 1015.94 1014.90 1013.97 1013.45 1013.02 1012.95 1012.99 1013.00 1012.99 1012.65 1012.16 1011.63 1011.29 1010.93 1010.85 1011.08 1011.67 1011.57 1011.46 1010.81 1010.58 1010.37 1009.94 1009.77 1009.80 1009.86 1008.99 1009.01 1008.81 1007.26 1008.00 1009.27 1010.27 1011.29 1012.26 1013.15 1013.91 1014.68 1015.64 1016.56 1017.36 1018.01 1018.72 1019.11
1018.71 1018.93 1019.18 1019.26 1019.34 1019.09 1018.42 1017.91 1017.62 1016.75 1015.26 1013.98 1013.44 1012.99 1013.05 1013.58 1013.89 1013.71 1013.50 1012.92 1012.08 1011.64 1011.29 1010.84 1010.50 1010.63 1011.13 1011.76 1011.56 1010.97 1011.19 1011.01 1010.58 1010.23 1009.70 1009.24 1008.94 1008.74 1009.28 1008.45 1009.22 1010.04 1010.96 1011.93 1012.89 1013.55 1014.29 1014.94 1015.66 1016.41 1017.16 1017.84 1018.47 1018.95
1019.56 1019.66 1019.67 1019.58 1019.23 1018.96 1018.72 1017.69 1016.68 1015.62 1014.64 1013.92 1013.00 1012.69 1013.86 1014.51 1014.33 1013.46 1012.82 1012.30 1011.98 1011.43 1010.50 1009.90 1009.83 1010.45 1010.55 1010.40 1010.62 1010.74 1011.10 1010.98 1010.77 1010.62 1010.39 1009.76 1008.85 1008.65 1008.91 1009.68 1009.95 1010.73 1011.71 1012.50 1013.26 1013.92 1014.43 1015.13 1015.67 1016.29 1017.00 1017.64 1018.30 1018.70
1019.71 1019.88 1019.64 1019.43 1019.06 1018.41 1018.07 1017.19 1016.40 1015.52 1015.07 1013.67 1012.88 1012.41 1013.11 1013.42 1012.73 1012.25 1012.15 1012.04 1011.48 1010.31 1009.82 1009.72 1009.75 1010.12 1010.34 1010.44 1010.74 1010.61 1010.55 1010.73 1010.88 1010.33 1010.73 1010.29 1009.78 1009.29 1009.73 1010.02 1010.68 1011.61 1012.30 1012.89 1013.43 1014.17 1014.87 1015.41 1015.91 1016.52 1017.09 1017.51 1018.10 1018.65
1019.74 1019.57 1019.28 1018.83 1018.47 1018.09 1017.55 1016.51 1016.01 1014.84 1014.11 1012.97 1012.34 1011.95 1012.17 1012.03 1011.63 1011.26 1011.45 1010.97 1010.50 1010.09 1009.41 1009.46 1009.90 1010.33 1010.49 1010.36 1010.47 1010.13 1009.88 1009.70 1010.11 1010.57 1010.46 1010.25 1009.61 1009.88 1010.19 1010.64 1011.27 1012.24 1012.93 1013.52 1013.82 1014.52 1015.37 1015.98 1016.47 1016.95 1017.23 1017.76 1018.13 1018.59
1019.20 1019.10 1018.49 1018.15 1017.96 1017.41 1017.05 1016.03 1015.39 1014.75 1013.73 1012.83 1012.27 1011.74 1011.55 1011.45 1011.15 1011.21 1011.02 1011.02 1010.41 1009.34 1009.52 1009.84 1009.94 1010.24 1010.53 1010.35 1010.50 1010.25 1009.98 1009.97 1010.03 1010.46 1010.14 1009.89 1009.85 1010.08 1010.35 1011.10 1011.83 1012.47 1013.17 1013.93 1014.55 1015.23 1015.75 1016.14 1016.74 1017.18 1017.50 1017.89 1018.30 1018.59
1019.06 1018.29 1017.77 1017.12 1016.38 1016.03 1015.15 1014.53 1014.18 1013.67 1013.05 1012.26 1011.94 1011.60 1011.39 1011.14 1011.13 1010.74 1010.58 1010.39 1010.14 1010.02 1009.99 1009.67 1009.70 1010.01 1010.36 1010.79 1010.87 1010.54 1010.09 1010.00 1010.83 1010.99 1010.38 1010.70 1010.38 1010.45 1010.97 1011.57 1012.46 1013.05 1013.56 1014.16 1014.81 1015.33 1015.77 1016.37 1016.86 1017.32 1017.76 1018.15 1018.51 1018.79
1017.97 1016.64 1016.41 1015.18 1014.65 1014.33 1013.61 1013.12 1012.84 1012.62 1012.23 1011.88 1011.60 1011.44 1011.33 1011.16 1010.83 1010.54 1010.82 1010.82 1011.11 1010.32 1010.01 1010.23 1010.28 1010.59 1010.95 1011.24 1011.37 1010.92 1010.99 1010.70 1010.85 1010.59 1010.60 1010.50 1010.37 1010.59 1011.07 1012.08 1012.90 1013.54 1013.81 1014.32 1014.81 1015.41 1015.94 1016.39 1016.95 1017.56 1018.09 1018.45 1018.67 1018.90
1016.97 1015.62 1014.85 1014.34 1013.89 1013.59 1013.39 1012.93 1012.33 1012.21 1011.86 1011.69 1011.62 1011.44 1011.31 1011.10 1011.07 1011.65 1011.56 1010.63 1010.24 1010.29 1010.38 1010.70 1011.08 1011.65 1012.15 1011.96 1011.83 1011.62 1011.21 1010.45 1010.65 1010.38 1009.99 1010.05 1009.74 1010.38 1011.04 1011.90 1012.75 1013.38 1013.79 1014.41 1015.03 1015.40 1015.97 1016.61 1017.22 1017.74 1018.21 1018.61 1018.85 1019.12
1015.72 1015.07 1015.21 1014.35 1013.64 1013.22 1013.27 1012.79 1012.37 1012.19 1012.20 1011.78 1011.43 1011.05 1010.88 1010.93 1011.29 1011.34 1011.18 1010.70 1010.38 1010.46 1010.62 1011.04 1011.57 1012.10 1012.42 1011.87 1011.54 1011.74 1011.31 1010.93 1010.76 1010.39 1009.65 1009.84 1010.24 1011.05 1011.57 1012.20 1012.79 1013.27 1013.84 1014.56 1015.05 1015.65 1016.31 1016.98 1017.47 1017.97 1018.46 1018.92 1019.34 1019.56
1014.58 1014.28 1014.89 1014.10 1013.66 1013.24 1012.42 1012.06 1012.04 1012.22 1012.81 1011.85 1011.29 1011.11 1011.13 1010.83 1010.77 1010.63 1010.43 1010.48 1010.62 1010.62 1010.78 1011.22 1011.70 1012.08 1011.95 1011.51 1011.02 1010.57 1010.11 1009.67 1009.66 1009.76 1010.31 1011.30 1011.69 1012.34 1012.46 1012.70 1013.29 1014.00 1014.55 1015.07 1015.52 1016.13 1016.67 1017.14 1017.80 1018.42 1018.89 1019.36 1019.75 1020.17
1013.81 1013.20 1013.05 1012.93 1012.75 1011.86 1011.62 1011.66 1011.57 1011.19 1011.14 1011.07 1010.98 1010.99 1010.74 1010.83 1010.65 1010.08 1010.37 1010.35 1010.32 1010.61 1011.01 1011.63 1012.15 1012.29 1012.09 1011.67 1011.09 1010.43 1009.93 1009.54 1009.50 1010.00 1010.55 1011.35 1011.82 1012.31 1012.60 1013.22 1013.83 1014.47 1015.14 1015.58 1016.07 1016.91 1017.28 1017.91 1018.53 1019.13 1019.57 1019.98 1020.31 1020.81
1014.09 1013.52 1013.12 1012.40 1011.96 1011.56 1011.65 1011.36 1011.38 1011.07 1011.01 1011.12 1011.07 1011.12 1010.97 1010.74 1010.42 1010.30 1010.01 1009.92 1010.31 1010.72 1011.61 1012.17 1012.35 1012.24 1012.17 1012.10 1011.73 1011.07 1010.40 1009.84 1009.81 1010.10 1010.59 1011.22 1011.69 1012.28 1012.91 1013.73 1014.26 1014.90 1015.53 1016.02 1016.68 1017.27 1017.98 1018.52 1019.02 1019.46 1019.81 1020.19 1020.75 1021.13
1013.90 1013.35 1013.01 1012.59 1012.14 1011.75 1011.71 1011.42 1011.19 1011.17 1011.19 1011.19 1011.25 1011.19 1011.05 1010.87 1010.82 1010.70 1010.42 1010.37 1010.75 1011.23 1012.30 1012.37 1012.70 1012.58 1012.36 1012.23 1012.18 1011.98 1011.93 1011.06 1010.60 1010.73 1010.97 1011.46 1011.95 1012.59 1013.48 1014.18 1014.72 1015.42 1016.11 1016.82 1017.39 1017.95 1018.51 1019.01 1019.49 1019.94 1020.38 1020.74 1020.96 1021.32
1014.11 1013.87 1013.52 1013.11 1012.67 1012.30 1011.88 1011.67 1011.73 1011.73 1011.74 1011.86 1011.69 1011.69 1011.35 1011.21 1011.28 1010.86 1010.45 1010.37 1010.51 1011.01 1012.36 1012.88 1013.04 1012.72 1012.45 1012.08 1011.99 1012.05 1011.90 1011.31 1011.79 1011.47 1011.57 1011.95 1012.40 1013.28 1013.81 1014.55 1015.26 1016.09 1016.80 1017.52 1018.15 1018.65 1019.14 1019.68 1020.12 1020.41 1020.70 1021.05 1021.52 1022.16
Wind_Speed
17 18 18 18 18 17 16 15 14 15 16 16 15 16 16 16 17 9 8 8 5 5 12 14 14 9 10 6 4 8 7 3 2 1 3 4 1 4 2 3 12 8 6 4 4 4 7 6 6 3 7 5 9 9
17 17 16 17 16 16 15 15 16 16 15 16 16 15 15 16 16 13 5 7 5 5 10 17 19 20 16 14 4 5 5 3 3 2 2 1 1 3 4 0 5 3 8 6 9 8 3 5 8 6 6 7 6 10
17 17 17 16 16 15 15 16 16 16 15 15 16 14 15 15 14 11 5 6 6 5 11 8 12 16 14 14 9 3 3 5 6 3 3 3 2 5 2 2 2 3 4 4 7 3 8 9 7 6 6 9 10 9
17 17 17 16 15 14 14 15 14 15 13 14 14 15 14 14 14 13 5 7 3 4 6 6 6 8 13 9 14 9 6 4 4 4 3 1 3 4 3 4 2 4 5 3 0 7 8 7 9 8 11 13 11 9
17 18 17 17 16 16 14 14 13 13 13 14 14 14 14 13 14 10 8 7 5 3 5 10 19 20 15 9 11 12 6 4 1 5 2 3 1 4 2 3 1 5 5 4 6 7 8 10 9 12 12 11 9 10
18 18 17 16 16 15 14 13 14 14 14 14 14 14 12 12 12 5 4 5 4 4 3 6 6 10 10 4 8 4 4 4 3 3 4 3 2 4 1 2 6 4 3 9 4 5 7 11 11 10 12 11 10 10
18 18 17 17 16 15 14 14 15 14 14 14 14 12 12 11 5 5 4 2 7 5 2 5 5 7 9 7 5 3 5 4 4 4 3 2 2 3 3 3 5 4 5 8 10 11 9 8 8 10 11 12 10 13
20 19 18 17 16 15 14 14 14 14 12 11 11 12 12 12 11 8 9 11 4 3 3 5 6 4 8 4 4 5 4 4 4 5 2 3 3 3 4 4 6 3 4 8 8 8 9 10 10 11 12 11 13 14
22 20 19 17 17 15 15 14 13 12 11 10 10 13 8 5 5 5 6 9 4 1 3 4 5 5 5 3 3 4 5 5 4 7 6 4 5 7 8 9 7 8 9 10 9 9 10 12 12 13 12 9 11 12
23 21 20 17 17 15 14 13 11 10 8 6 5 4 5 5 11 12 4 4 4 3 3 4 6 6 5 2 4 5 1 4 7 7 6 9 10 8 9 9 9 8 12 13 12 9 10 10 13 13 11 8 8 13
20 20 19 17 17 16 14 13 11 8 3 3 4 4 4 7 2 3 5 5 4 4 5 5 10 9 5 2 2 4 4 4 5 7 9 7 7 11 9 9 8 5 11 10 11 8 10 11 13 11 10 10 8 16
18 17 17 16 16 15 13 12 11 6 3 2 2 7 2 3 4 4 5 4 6 7 7 6 9 10 4 2 2 2 1 6 7 2 7 13 7 11 9 10 9 10 11 11 11 11 10 11 14 12 8 8 16 14
14 14 14 13 13 12 12 11 13 11 5 2 3 5 3 2 6 5 7 5 5 5 6 8 6 7 4 2 2 1 2 5 10 5 10 4 6 8 15 10 9 13 13 12 11 11 11 9 14 13 9 13 15 14
5 7 9 13 11 10 10 12 12 5 3 3 3 4 4 5 6 6 7 6 6 6 7 8 7 5 5 5 3 4 2 1 5 1 6 5 10 15 9 8 12 15 13 15 12 11 11 13 12 12 12 15 14 13
3 5 8 9 10 10 10 11 10 5 2 4 3 5 7 6 8 8 9 9 3 5 5 6 3 2 3 5 4 3 4 3 4 5 4 7 9 8 9 12 16 13 13 11 9 12 14 13 12 12 14 12 13 12
7 4 4 11 11 10 9 8 4 2 3 4 6 6 8 7 6 6 9 10 5 4 6 2 4 2 1 3 5 6 5 7 6 2 3 10 13 7 12 13 13 13 12 13 11 13 13 12 12 14 11 11 12 11
6 2 12 12 10 9 9 3 3 4 4 5 6 7 8 8 4 1 6 6 5 3 3 5 3 2 5 5 4 5 5 3 6 3 2 4 7 10 13 12 12 13 14 13 13 13 11 12 14 12 12 8 7 8
2 3 13 12 8 5 3 2 3 4 6 6 8 7 7 3 4 7 3 8 4 2 2 1 2 5 3 3 3 7 7 3 2 2 2 3 8 11 4 13 13 14 13 13 13 11 11 13 12 8 9 7 7 7
4 6 10 9 3 2 4 4 3 4 6 7 8 7 7 3 3 6 5 6 4 3 2 2 1 3 2 2 6 3 3 4 3 3 2 2 3 10 11 13 15 13 13 12 11 8 7 10 10 9 8 7 5 4
10 11 8 3 3 2 3 3 3 5 5 4 8 7 1 3 6 6 6 8 4 2 2 2 2 3 3 3 3 5 2 3 3 3 3 1 4 2 6 12 9 11 11 10 7 7 5 6 9 8 8 7 6 6
6 3 2 2 2 3 3 3 4 5 5 4 5 1 4 4 7 4 4 1 2 3 3 4 3 6 4 3 4 4 4 2 3 3 5 5 3 9 9 9 9 9 8 6 5 5 7 7 7 8 8 8 5 6
2 2 2 3 3 3 4 4 4 5 4 5 7 4 4 5 6 4 4 2 3 4 2 2 2 3 2 2 5 4 3 4 2 2 2 8 4 8 7 7 7 7 6 6 6 6 8 5 5 6 5 6 8 5
7 3 3 4 3 2 6 3 4 3 4 3 4 1 2 2 3 3 2 3 4 5 3 4 4 4 2 3 4 6 5 4 3 3 3 9 8 7 5 5 6 9 8 6 6 7 7 9 6 5 4 5 4 6
2 3 3 3 5 3 3 3 2 3 4 3 2 2 2 2 1 1 1 3 4 1 4 3 2 2 3 4 4 6 6 2 8 5 7 2 8 5 4 8 8 8 8 9 7 6 5 5 7 4 4 5 4 6
3 4 3 5 6 6 6 4 5 5 4 1 1 1 1 1 2 3 3 1 5 2 7 4 1 3 2 5 5 6 8 3 12 8 7 3 3 6 9 9 9 7 6 7 6 6 5 8 7 5 5 5 6 6
4 3 3 4 3 3 4 5 4 4 2 1 1 1 0 2 3 2 3 5 5 2 6 6 5 5 6 5 4 5 5 4 1 4 1 4 2 10 10 10 8 5 5 7 6 8 7 5 8 9 6 6 7 5
4 4 3 5 4 4 4 5 5 2 3 3 2 1 1 2 3 4 5 5 3 4 4 4 5 4 3 3 4 2 4 3 1 4 3 6 7 10 11 11 9 5 6 9 8 7 8 8 8 8 8 6 6 8
6 3 4 6 4 2 3 3 3 4 4 3 2 2 1 4 1 3 4 5 2 3 4 6 5 3 1 3 3 3 6 8 10 10 4 9 7 9 11 8 6 12 9 9 8 9 9 8 8 10 10 8 7 6
7 4 7 8 3 4 4 1 2 4 3 3 3 3 3 1 2 3 2 3 1 3 2 4 4 4 3 4 5 5 7 2 5 12 15 9 9 7 9 9 9 9 7 6 8 10 12 10 10 8 9 8 7 8
10 6 8 7 4 2 0 3 3 2 2 2 2 2 3 4 5 2 5 2 3 3 5 5 3 4 4 5 5 4 4 3 6 6 8 11 10 9 7 10 9 10 9 8 8 7 11 11 10 9 9 8 8 9
6 7 10 7 3 1 3 1 3 5 0 1 2 2 4 3 4 5 3 2 6 4 6 3 3 4 4 4 3 4 5 4 7 8 11 9 8 7 10 10 9 9 8 8 9 9 10 9 9 10 11 12 9 6
4 6 5 5 3 3 3 4 2 2 1 2 2 3 4 4 1 3 4 3 3 6 5 6 2 5 5 2 3 4 6 3 9 7 14 8 5 11 13 11 10 10 10 11 10 10 12 13 11 10 9 7 8 13
4 4 4 4 3 3 4 3 2 3 2 1 0 2 4 2 1 1 1 1 1 6 7 5 2 4 5 7 8 7 5 7 7 5 7 10 10 14 11 11 12 13 14 11 11 12 14 16 10 8 11 13 16 17
Wind_Direction
299 297 293 295 299 299 301 305 308 316 322 324 325 330 335 335 338 345 291 291 347 296 292 280 307 320 334 4 360 327 341 351 84 277 180 226 210 257 207 221 145 165 153 192 189 178 265 150 102 181 185 104 105 93
295 297 295 291 293 297 299 301 304 304 308 315 319 319 327 331 331 339 284 325 328 251 282 318 286 274 259 266 314 325 272 348 299 179 246 191 236 56 356 44 64 125 170 191 146 200 170 68 116 118 119 122 116 106
291 291 291 290 292 290 292 295 297 297 293 305 313 314 318 323 323 333 297 293 302 268 278 238 252 256 232 224 213 234 0 350 335 329 287 224 140 119 204 317 73 94 233 127 83 179 137 127 114 113 108 109 111 110
284 286 287 286 287 290 290 291 291 300 289 296 301 305 307 312 315 321 286 291 312 282 273 286 2 309 297 247 203 210 235 303 274 293 259 279 132 140 199 199 101 175 86 356 313 170 127 140 143 130 110 111 106 106
282 281 282 283 282 283 286 288 291 289 291 289 291 294 299 307 311 306 271 263 219 229 309 300 308 271 262 226 193 201 186 189 259 292 286 232 241 52 311 67 310 180 181 148 218 204 161 177 156 131 123 123 118 112
279 276 275 277 277 275 276 280 288 286 284 282 286 291 295 303 319 293 295 82 8 166 279 287 333 284 278 226 152 194 195 176 191 258 253 239 243 114 185 197 237 301 181 172 186 118 115 140 141 128 129 127 124 124
279 276 268 267 272 273 273 275 283 291 280 277 277 286 289 290 290 255 291 306 335 324 247 266 252 222 227 244 168 165 207 207 175 227 237 272 314 139 160 195 270 25 95 94 109 100 85 117 133 129 130 127 121 114
276 271 266 257 259 261 265 270 277 287 276 280 274 282 284 287 277 256 254 244 162 245 265 267 270 292 195 210 183 176 196 180 229 222 232 222 300 171 212 197 251 282 144 117 113 107 119 121 108 106 115 114 112 119
271 265 262 255 247 252 259 269 274 275 268 279 277 288 278 221 228 227 147 128 102 164 275 292 278 277 357 252 203 190 167 193 220 205 221 186 219 220 177 195 208 221 181 157 131 123 122 131 128 127 124 129 125 137
267 261 254 251 240 239 249 258 266 257 262 276 266 232 239 211 121 103 151 147 175 192 232 246 299 277 332 69 321 2 36 238 192 209 179 230 230 227 196 191 199 226 167 143 139 148 146 149 142 141 146 156 148 149
260 251 243 242 238 230 239 242 246 234 217 217 235 225 346 342 137 203 200 183 161 218 212 227 226 253 304 278 305 78 308 237 239 205 196 202 219 219 200 179 185 167 148 150 149 144 149 146 147 148 159 172 152 147
250 238 228 234 231 219 228 237 221 187 206 163 300 270 206 265 196 224 196 194 187 223 193 217 216 196 222 153 222 117 245 297 231 290 184 224 200 201 207 189 180 152 142 140 138 139 141 146 154 157 159 135 136 140
242 224 215 226 204 206 223 215 188 216 336 276 236 241 186 221 217 224 206 181 203 199 222 204 210 173 141 152 100 135 158 276 321 277 214 181 198 209 201 190 165 152 147 143 143 144 155 166 151 142 128 124 130 139
188 202 219 190 187 200 198 185 185 186 221 238 235 259 239 218 233 213 241 237 204 242 256 209 232 175 142 166 152 188 203 68 249 335 288 197 198 202 196 188 150 152 146 142 146 154 147 126 125 121 119 132 133 140
164 138 177 180 179 179 178 171 179 206 235 231 248 244 232 251 308 332 327 309 277 292 329 298 51 23 76 127 174 181 196 221 242 250 223 275 293 177 157 141 139 139 135 136 129 125 114 113 111 109 121 125 133 141
126 159 211 162 172 168 162 161 169 222 242 239 229 259 283 296 314 3 339 316 334 332 323 264 120 147 255 225 178 203 214 206 204 229 340 334 292 122 123 127 130 129 119 113 113 113 114 113 114 118 118 118 139 149
202 326 146 148 146 150 179 160 186 218 232 247 246 245 253 276 353 111 265 271 270 209 14 289 224 120 156 224 215 202 236 325 48 353 336 246 332 348 121 121 121 117 114 114 112 114 114 112 114 120 126 137 136 149
322 192 141 140 143 137 172 235 245 238 245 242 260 270 277 322 274 290 2 301 285 296 261 360 297 25 323 300 14 19 7 36 96 2 277 299 358 347 309 119 110 117 116 115 118 120 120 122 126 126 120 130 133 138
312 138 146 152 118 178 192 217 218 258 252 256 266 270 259 257 349 352 310 297 286 316 308 327 261 129 243 11 341 341 11 349 323 328 360 69 102 287 317 103 110 113 112 115 119 126 127 131 135 139 141 141 142 149
102 109 119 46 360 289 269 219 211 256 272 292 296 264 34 54 340 303 314 296 280 292 244 232 231 158 129 189 234 296 60 313 25 336 318 178 190 123 266 105 108 110 108 109 109 117 126 127 142 143 145 155 148 157
24 54 68 297 263 244 258 275 250 251 298 289 297 317 43 19 299 278 257 283 228 225 231 226 240 124 171 178 251 47 109 43 41 36 347 308 170 139 99 112 109 107 116 126 131 133 144 139 146 141 147 146 153 156
172 193 283 197 268 227 240 253 260 301 276 267 291 278 153 209 220 218 151 178 232 259 275 99 91 118 165 60 39 352 303 151 80 339 342 308 234 101 113 114 114 136 158 162 138 114 116 102 99 123 146 146 147 159
162 209 249 229 262 267 264 246 251 249 268 282 308 222 191 253 256 136 252 225 160 252 204 92 78 96 60 5 359 302 283 252 80 329 218 208 122 121 130 138 113 109 101 85 83 89 105 105 100 115 115 110 129 141
193 222 239 229 201 258 247 262 249 264 273 251 241 240 209 216 200 250 269 328 290 277 60 103 51 34 44 4 10 325 321 67 91 325 328 206 127 149 145 114 119 106 112 119 117 115 129 118 118 120 114 129 131 130
241 249 181 257 217 221 221 201 209 206 256 228 265 331 295 240 254 238 144 9 351 35 197 159 209 132 80 55 339 314 358 76 139 158 241 2 174 105 100 100 107 114 121 116 126 137 124 141 141 130 129 132 135 136
266 223 181 281 298 277 320 340 4 3 300 343 26 162 133 283 285 334 53 149 239 287 46 25 10 24 22 27 348 343 351 339 80 130 128 235 224 126 117 118 125 133 132 138 134 134 128 129 130 135 128 118 129 125
265 276 266 253 280 325 329 332 309 273 317 20 18 354 291 291 18 39 320 317 42 56 60 38 55 38 35 323 297 335 331 308 219 191 226 251 135 140 142 144 142 142 135 130 141 143 136 128 124 128 123 109 107 118
245 216 258 308 298 356 305 297 310 352 360 341 279 239 157 5 91 190 204 270 32 68 53 71 75 47 13 292 286 275 256 217 231 236 126 62 72 129 109 112 114 124 119 138 131 118 124 129 122 128 119 114 109 117
246 174 180 258 237 263 248 225 306 104 241 259 360 12 45 265 199 203 169 106 335 335 69 80 42 354 334 292 253 246 247 208 131 116 107 103 103 102 112 107 99 94 85 92 86 130 142 139 138 133 124 122 121 126
270 287 279 259 272 279 60 130 290 330 5 15 353 345 6 28 321 319 144 164 239 115 84 88 51 1 352 336 340 302 295 197 119 126 131 131 132 137 128 112 114 108 98 92 93 98 101 106 103 109 120 125 122 125
307 304 289 283 307 34 338 294 273 285 113 329 354 355 304 308 3 330 300 8 93 97 105 74 29 4 341 336 339 13 0 116 139 124 107 115 122 125 119 119 113 114 121 113 105 112 120 121 123 127 131 118 117 137
278 270 311 307 285 11 320 289 267 282 314 296 305 7 334 324 2 10 326 30 102 101 103 91 49 306 302 315 348 323 269 336 40 98 118 122 126 117 125 122 117 109 103 101 111 117 123 121 116 106 122 130 141 131
260 287 294 300 309 285 269 258 17 328 356 335 285 253 237 153 2 334 327 64 263 96 112 94 69 291 316 355 327 305 263 65 62 46 71 84 92 126 123 123 115 114 113 117 115 119 125 127 122 105 104 111 114 105